Location: Hains Lake
(37.8540°N, 99.8578°W)
Time: 15:38:43
(UTC+00:00)

Explorer 7 - Visible Passes

Search period start: 19 April 2021 00:00
Search period end: 29 April 2021 00:00
Orbit: 484 x 677 km, 50.3° (Epoch: 19 April)

Date Brightness Start Highest point End Pass type
(mag) Time Alt. Az. Time Alt. Az. Time Alt. Az.
19 Apr 7.0 02:48:58 10° WSW 02:52:56 71° NW 02:57:11 10° NE visible
19 Apr 9.3 04:30:52 10° WNW 04:33:56 21° NNW 04:33:56 21° NNW visible
19 Apr 9.2 09:42:04 16° SE 09:42:04 16° SE 09:43:07 10° SE visible
20 Apr 7.9 02:53:38 10° WSW 02:57:28 45° NNW 03:01:34 10° NE visible
20 Apr 9.5 04:35:58 10° NW 04:38:52 18° N 04:39:16 17° N visible
21 Apr 8.6 02:58:28 10° W 03:02:05 31° NNW 03:05:55 10° NE visible
21 Apr 9.6 04:41:00 10° NW 04:43:40 16° N 04:44:07 16° N visible
22 Apr 9.1 03:03:28 10° WNW 03:06:45 24° NNW 03:10:13 10° NE visible
22 Apr 9.6 04:45:53 10° NW 04:48:29 16° N 04:48:39 15° N visible
23 Apr 9.4 03:08:32 10° WNW 03:11:29 19° NNW 03:14:34 10° NNE visible
23 Apr 9.6 04:50:36 10° NNW 04:53:00 16° N 04:53:00 16° N visible
24 Apr 9.5 03:13:37 10° NW 03:16:16 16° N 03:19:00 10° NNE visible
24 Apr 9.6 04:55:07 10° NNW 04:57:14 17° N 04:57:14 17° N visible
25 Apr 9.6 03:18:38 10° NW 03:21:04 15° N 03:23:35 10° NNE visible
25 Apr 9.5 04:59:31 10° NNW 05:01:24 18° N 05:01:24 18° N visible
26 Apr 9.5 03:23:29 10° NNW 03:25:52 15° N 03:28:21 10° NE visible
26 Apr 9.5 05:03:52 10° NW 05:05:30 19° NNW 05:05:30 19° NNW visible
27 Apr 9.4 03:28:07 10° NNW 03:30:40 16° N 03:33:18 10° NE visible
27 Apr 9.5 05:08:10 10° NW 05:09:35 19° NNW 05:09:35 19° NNW visible
28 Apr 9.4 01:51:16 10° NW 01:53:39 15° N 01:56:07 10° NNE visible
28 Apr 9.2 03:32:34 10° NNW 03:35:26 18° NNE 03:37:23 14° NE visible
28 Apr 9.6 05:12:29 10° NW 05:13:39 18° NW 05:13:39 18° NW visible
